TimeEDT,TemperatureF,Dew PointF,Humidity,Sea Level PressureIn,VisibilityMPH,Wind Direction,Wind SpeedMPH,Gust SpeedMPH,PrecipitationIn,Events,Conditions,WindDirDegrees,DateUTC
12:15 AM,35.6,33.8,93,30.41,10.0,Calm,Calm,-,N/A,,Clear,0,2013-04-27 04:15:00
12:35 AM,35.6,32.0,87,30.41,10.0,Calm,Calm,-,N/A,,Clear,0,2013-04-27 04:35:00
12:55 AM,35.6,32.0,87,30.41,10.0,Calm,Calm,-,N/A,,Clear,0,2013-04-27 04:55:00
1:15 AM,33.8,30.2,87,30.41,10.0,Calm,Calm,-,N/A,,Clear,0,2013-04-27 05:15:00
1:35 AM,33.8,32.0,93,30.40,10.0,West,3.5,-,N/A,,Clear,280,2013-04-27 05:35:00
1:55 AM,33.8,28.4,81,30.40,10.0,Calm,Calm,-,N/A,,Clear,0,2013-04-27 05:55:00
2:15 AM,32.0,32.0,100,30.40,10.0,Calm,Calm,-,N/A,,Clear,0,2013-04-27 06:15:00
2:35 AM,33.8,30.2,87,30.40,10.0,Calm,Calm,-,N/A,,Clear,0,2013-04-27 06:35:00
3:15 AM,30.2,28.4,93,30.39,10.0,Calm,Calm,-,N/A,,Clear,0,2013-04-27 07:15:00
3:35 AM,30.2,30.2,100,30.39,10.0,Calm,Calm,-,N/A,,Clear,0,2013-04-27 07:35:00
3:55 AM,33.8,32.0,93,30.39,10.0,ENE,4.6,-,N/A,,Clear,60,2013-04-27 07:55:00
4:15 AM,33.8,32.0,93,30.40,10.0,Calm,Calm,-,N/A,,Clear,0,2013-04-27 08:15:00
4:35 AM,32.0,28.4,87,30.39,10.0,Calm,Calm,-,N/A,,Clear,0,2013-04-27 08:35:00
4:55 AM,32.0,32.0,100,30.39,10.0,WNW,4.6,-,N/A,,Clear,290,2013-04-27 08:55:00
5:15 AM,30.2,30.2,100,30.39,10.0,Calm,Calm,-,N/A,,Clear,0,2013-04-27 09:15:00
5:35 AM,30.2,30.2,100,30.39,10.0,Calm,Calm,-,N/A,,Clear,0,2013-04-27 09:35:00
5:55 AM,30.2,30.2,100,30.39,10.0,Calm,Calm,-,N/A,,Clear,0,2013-04-27 09:55:00
6:15 AM,32.0,32.0,100,30.40,10.0,Calm,Calm,-,N/A,,Clear,0,2013-04-27 10:15:00
6:35 AM,33.8,32.0,93,30.40,10.0,NE,4.6,-,N/A,,Clear,40,2013-04-27 10:35:00
6:55 AM,39.2,37.4,93,30.41,10.0,NE,4.6,-,N/A,,Clear,50,2013-04-27 10:55:00
7:15 AM,42.8,39.2,87,30.42,10.0,East,5.8,-,N/A,,Scattered Clouds,90,2013-04-27 11:15:00
7:35 AM,42.8,39.2,87,30.42,10.0,East,8.1,-,N/A,,Partly Cloudy,80,2013-04-27 11:35:00
7:55 AM,44.6,39.2,81,30.42,10.0,East,9.2,-,N/A,,Clear,80,2013-04-27 11:55:00
8:15 AM,44.6,37.4,76,30.42,10.0,East,9.2,-,N/A,,Clear,100,2013-04-27 12:15:00
8:35 AM,44.6,37.4,76,30.42,10.0,East,8.1,-,N/A,,Clear,100,2013-04-27 12:35:00
9:15 AM,44.6,35.6,71,30.42,10.0,East,9.2,-,N/A,,Clear,100,2013-04-27 13:15:00
9:35 AM,44.6,35.6,71,30.42,10.0,East,9.2,-,N/A,,Clear,100,2013-04-27 13:35:00
9:55 AM,46.4,33.8,62,30.42,10.0,East,5.8,-,N/A,,Clear,100,2013-04-27 13:55:00
10:15 AM,46.4,35.6,66,30.42,10.0,ESE,8.1,-,N/A,,Clear,110,2013-04-27 14:15:00
10:35 AM,46.4,37.4,71,30.42,10.0,East,8.1,-,N/A,,Clear,90,2013-04-27 14:35:00
10:55 AM,46.4,37.4,71,30.42,10.0,East,5.8,-,N/A,,Clear,80,2013-04-27 14:55:00
11:15 AM,46.4,35.6,66,30.42,10.0,ENE,4.6,-,N/A,,Clear,60,2013-04-27 15:15:00
11:35 AM,48.2,37.4,66,30.42,10.0,East,6.9,-,N/A,,Clear,90,2013-04-27 15:35:00
11:55 AM,48.2,33.8,58,30.42,10.0,ESE,6.9,-,N/A,,Clear,110,2013-04-27 15:55:00
12:15 PM,48.2,35.6,62,30.41,10.0,SSE,6.9,-,N/A,,Clear,150,2013-04-27 16:15:00
12:55 PM,48.2,33.8,58,30.40,10.0,SSE,6.9,-,N/A,,Clear,160,2013-04-27 16:55:00
1:15 PM,48.2,33.8,58,30.39,10.0,South,8.1,-,N/A,,Clear,190,2013-04-27 17:15:00
1:35 PM,48.2,30.2,50,30.38,10.0,SSE,8.1,-,N/A,,Clear,160,2013-04-27 17:35:00
1:55 PM,48.2,33.8,58,30.38,10.0,SSE,9.2,-,N/A,,Clear,160,2013-04-27 17:55:00
2:15 PM,48.2,32.0,54,30.37,10.0,South,9.2,-,N/A,,Clear,170,2013-04-27 18:15:00
2:35 PM,48.2,33.8,58,30.36,10.0,SSE,8.1,-,N/A,,Clear,150,2013-04-27 18:35:00
2:55 PM,50.0,30.2,47,30.36,10.0,SSE,6.9,-,N/A,,Clear,160,2013-04-27 18:55:00
3:15 PM,48.2,30.2,50,30.35,10.0,South,11.5,-,N/A,,Clear,170,2013-04-27 19:15:00
3:35 PM,50.0,28.4,43,30.34,10.0,South,8.1,-,N/A,,Clear,190,2013-04-27 19:35:00
3:55 PM,50.0,32.0,50,30.33,10.0,South,10.4,-,N/A,,Scattered Clouds,170,2013-04-27 19:55:00
4:15 PM,50.0,33.8,54,30.33,10.0,South,5.8,-,N/A,,Mostly Cloudy,190,2013-04-27 20:15:00
4:35 PM,48.2,35.6,62,30.32,10.0,South,8.1,-,N/A,,Mostly Cloudy,170,2013-04-27 20:35:00
4:55 PM,48.2,33.8,58,30.32,10.0,South,6.9,-,N/A,,Mostly Cloudy,190,2013-04-27 20:55:00
5:15 PM,50.0,33.8,54,30.31,10.0,South,9.2,-,N/A,,Partly Cloudy,190,2013-04-27 21:15:00
5:35 PM,50.0,33.8,54,30.31,10.0,SSW,8.1,-,N/A,,Clear,200,2013-04-27 21:35:00
5:55 PM,50.0,35.6,58,30.31,10.0,SSW,5.8,-,N/A,,Clear,200,2013-04-27 21:55:00
6:15 PM,51.8,37.4,58,30.31,10.0,SW,8.1,-,N/A,,Clear,230,2013-04-27 22:15:00
6:35 PM,51.8,37.4,58,30.31,10.0,SW,5.8,-,N/A,,Clear,220,2013-04-27 22:35:00
6:55 PM,50.0,35.6,58,30.31,10.0,WSW,9.2,-,N/A,,Clear,250,2013-04-27 22:55:00
7:15 PM,48.2,33.8,58,30.31,10.0,WSW,8.1,-,N/A,,Clear,250,2013-04-27 23:15:00
7:35 PM,46.4,35.6,66,30.31,10.0,WSW,9.2,-,N/A,,Clear,250,2013-04-27 23:35:00
7:55 PM,44.6,35.6,71,30.31,10.0,WSW,6.9,-,N/A,,Clear,240,2013-04-27 23:55:00
8:15 PM,44.6,37.4,76,30.31,10.0,WSW,4.6,-,N/A,,Clear,240,2013-04-28 00:15:00
8:35 PM,42.8,37.4,81,30.32,10.0,WSW,4.6,-,N/A,,Clear,250,2013-04-28 00:35:00
8:55 PM,42.8,37.4,81,30.32,10.0,West,5.8,-,N/A,,Clear,270,2013-04-28 00:55:00
9:15 PM,42.8,39.2,87,30.32,10.0,West,3.5,-,N/A,,Clear,270,2013-04-28 01:15:00
9:35 PM,41.0,39.2,93,30.32,10.0,West,4.6,-,N/A,,Clear,270,2013-04-28 01:35:00
9:55 PM,41.0,39.2,93,30.32,10.0,West,4.6,-,N/A,,Clear,270,2013-04-28 01:55:00
10:15 PM,41.0,37.4,87,30.33,10.0,West,5.8,-,N/A,,Clear,270,2013-04-28 02:15:00
10:35 PM,41.0,37.4,87,30.33,10.0,West,4.6,-,N/A,,Clear,270,2013-04-28 02:35:00
10:55 PM,39.2,37.4,93,30.33,10.0,West,4.6,-,N/A,,Clear,260,2013-04-28 02:55:00
11:15 PM,39.2,37.4,93,30.33,10.0,West,5.8,-,N/A,,Clear,280,2013-04-28 03:15:00
11:35 PM,39.2,37.4,93,30.33,10.0,West,6.9,-,N/A,,Clear,280,2013-04-28 03:35:00
11:55 PM,41.0,37.4,87,30.33,10.0,West,6.9,-,N/A,,Clear,270,2013-04-28 03:55:00